Regional Weather Roundup
Issued by NWS

Home | Current Version | Previous Version | Text Only | Print | Product List | Glossary Off
Versions: 1 2 3 4 5 6 7 8 9 10 11 12 13 14 15 16 17 18 19 20 21 22 23 24 25 26 27 28 29 30 31 32 33 34 35 36 37 38 39 40 41 42 43 44 45 46 47 48 49 50

000
ASUS43 KMPX 250801
RWRMN
WEATHER ROUNDUP FOR MINNESOTA
NATIONAL WEATHER SERVICE TWIN CITIES/CHANHASSEN MN
300 AM CDT MON JUL 25 2016


NOTE: "FAIR" INDICATES FEW OR NO CLOUDS BELOW 12,000 FEET WITH NO
SIGNIFICANT WEATHER AND/OR OBSTRUCTIONS TO VISIBILITY. N/A MEANS
CURRENT SKY AND/OR WEATHER CONDITIONS ARE NOT AVAILABLE.

MNZ060>063-068>070-250900-
   Twin Cities Metro

CITY           SKY/WX    TMP DP  RH WIND       PRES   REMARKS
TWIN CITIES    CLEAR     71  59  65 W6        30.01R
ST PAUL        PTCLDY    70  59  68 W7        30.00R
CRYSTAL        CLEAR     68  58  70 W5        29.99R
BLAINE         CLEAR     70  61  73 CALM      30.00R
LAKEVILLE      CLEAR     64  61  88 CALM      30.02R
EDEN PRAIRIE   CLEAR     66  62  87 SW5       30.01R
LAKEVILLE      CLEAR     64  61  88 CALM      30.02R
SOUTH ST PAUL  CLEAR     69  60  70 W5        30.00R
LAKE ELMO      FAIR      68  61  77 W3        30.01R
$$
MNZ001>005-007-008-013>017-022>024-027-028-250900-
   Northwest Minnesota

CITY           SKY/WX    TMP DP  RH WIND       PRES   REMARKS
HALLOCK        CLEAR     63  61  94 W3        29.95R
ROSEAU         CLEAR     63  57  82 W3        29.95R
WARROAD        CLEAR     61  57  88 W5        29.95R
THIEF RVR FALL CLEAR     60  59  96 CALM      29.99R
CROOKSTON      CLEAR     63  59  88 W3        29.98R
FOSSTON        CLEAR     55  55 100 S3        30.00R
DETROIT LAKES  CLEAR     64  59  82 W5        30.02S
MOORHEAD       CLEAR     61  57  88 SW3       30.01R
PARK RAPIDS    CLEAR     60  56  86 W5        30.00R
MAHNOMEN       FAIR      58  56  93 SW5       29.99S
$$
MNZ006-009>011-018-025>026-250900-
   North Central Minnesota

CITY           SKY/WX    TMP DP  RH WIND       PRES   REMARKS
BAUDETTE       CLEAR     60  58  92 W5        29.94R
FLAG ISLAND    CLEAR     63  61  94 W9        29.92R
INTL FALLS     CLEAR     59  57  93 W3        29.92R
WASKISH        CLEAR     66  63  88 NW9       29.96R
BIG FORK       CLEAR     57  55  94 CALM      29.96S FOG
LONGVILLE      CLEAR     61  57  88 W3        29.98R
GRAND RAPIDS   CLEAR     65  61  87 W5        29.98R
CRANE LAKE     CLEAR     57  55  94 W1        29.93R
ORR            CLEAR     63  57  82 CALM      29.92R
COOK           CLEAR     57  57 100 CALM      29.95R
WALKER         FAIR      60  57  91 W3        29.98S
$$
MNZ012-019>021-037-250900-
   Northeast Minnesota

CITY           SKY/WX    TMP DP  RH WIND       PRES   REMARKS
DULUTH         CLEAR     65  60  84 NW12      29.94R
ELY            CLEAR     63  57  82 W6        29.92R
HIBBING        CLEAR     61  58  90 NW6       29.95R
EVELETH        CLEAR     63  59  87 NW5       29.95S
DULUTH HARBOR  CLEAR     68  63  83 SW7       29.93R
TWO HARBORS    CLEAR     68  61  77 W3        29.90R
SILVER BAY     CLEAR     64  59  82 CALM      29.89R
GRAND MARAIS     N/A     65  58  78 SW8       29.82R
G MARAIS ARPRT PTCLDY    63  54  72 W8G21     29.87R
$$
MNZ029>031-032-039>041-046>048-054>057-064-250900-
   West Central Minnesota

CITY           SKY/WX    TMP DP  RH WIND       PRES   REMARKS
FERGUS FALLS   CLEAR     63  61  94 CALM      30.04R
WHEATON        CLEAR     64  61  88 SW3       30.05R
MORRIS         CLEAR     63  61  94 W5        30.03R
ALEXANDRIA     CLEAR     64  59  83 W6        30.04R
ELBOW LAKE     FAIR      60  58  91 SW6       30.04R
WADENA         CLEAR     59  57  94 SW5       30.01R
GLENWOOD       CLEAR     63  59  88 W5        30.04R
APPLETON       CLEAR     63  59  88 W5        30.03R
BENSON         CLEAR     61  57  88 W3        30.03S
ORTONVILLE     CLEAR     68  59  73 CALM      30.04S
MADISON        CLEAR     63  59  88 W6        30.04S
WILLMAR        FAIR      63  61  94 CALM      30.05R
$$
MNZ033>034-036-042>043-049>051-058-059-250900-
   Central Minnesota

CITY           SKY/WX    TMP DP  RH WIND       PRES   REMARKS
ST CLOUD       CLEAR     63  60  90 W5        30.00R
SAUK CENTRE    FAIR      61  58  92 CALM      30.03R
PAYNESVILLE    CLEAR     58  59 100 W5        30.03S
AITKIN         CLEAR     64  57  77 SW3       29.97R
PINE RIVER     CLEAR     63  57  82 CALM      30.02R
BRAINERD       CLEAR     66  59  78 W6        29.99R
STAPLES        CLEAR     61  57  88 W5        30.01R
LONG PRAIRIE   FAIR      63  59  88 SW6       30.03R
LITTLE FALLS   CLEAR     61  55  82 CALM      30.00S
LITCHFIELD     CLEAR     66  63  88 W5        30.03R
BUFFALO        CLEAR     65  61  84 CALM      30.02R
MAPLE LAKE     CLEAR     65  61  86 W3        30.02R
HUTCHINSON     CLEAR     62  61  96 CALM      30.04R
$$
MNZ037-044-045-052-053-250900-
   East Central Minnesota

CITY           SKY/WX    TMP DP  RH WIND       PRES   REMARKS
PRINCETON      PTCLDY    63  59  88 CALM      30.00R
MORA           CLEAR     63  59  88 W3        29.99S
CAMBRIDGE      CLEAR     68  57  68 CALM      29.98R
RUSH CITY      PTCLDY    64  59  86 CALM      29.98S
MOOSE LAKE     CLEAR     63  59  88 W5        29.95R
HINCKLEY       FAIR      63  61  94 W3        29.97R
CLOQUET        CLEAR     64  57  77 W7        29.95R
MCGREGOR       CLEAR     66  61  82 W5        29.97R
$$
MNZ071>073-080-081-089-090-097-098-250900-
   Southwest Minnesota

CITY           SKY/WX    TMP DP  RH WIND       PRES   REMARKS
MONTEVIDEO     PTCLDY    64  61  88 W3        30.06R
GRANITE FALLS  CLEAR     64  62  93 SW6       30.06S
CANBY          CLEAR     66  59  78 SW7       30.07R
MARSHALL       CLEAR     63  60  90 W5        30.06S
REDWOOD FALLS  CLEAR     67  61  81 W6        30.04R
OLIVIA         CLEAR     61  57  88 SW3       30.03S
PIPESTONE      CLEAR     61  61 100 W2        30.10S
WINDOM         CLEAR     63  61  94 W3        30.07S
WORTHINGTON    CLEAR     62  60  93 W6        30.08F
JACKSON        CLEAR     63  59  88 W3        30.07S
TRACY          CLEAR     68  62  81 W5        30.07R
SLAYTON        CLEAR     62  60  94 W5        30.09F
$$
MNZ065>067-074>077-082>085-091>093-250900-
   South Central Minnesota

CITY           SKY/WX    TMP DP  RH WIND       PRES   REMARKS
MANKATO        CLEAR     64  61  88 SW7       30.04S
NEW ULM        CLEAR     61  61 100 W5        30.04S
ST JAMES       CLEAR     61  57  88 W5        30.05F
FAIRMONT       CLEAR     64  61  88 CALM      30.04S
GLENCOE        CLEAR     66  63  91 CALM      30.02R
FARIBAULT      CLEAR     64  63  94 CALM      30.04S
OWATONNA       CLEAR     63  61  94 CALM      30.04S
WASECA         CLEAR     63  61  94 CALM      30.05S
ALBERT LEA     CLEAR     66  64  94 W3        30.04S
$$
MNZ078>079-086>088-094>096-250900-
   Southeast Minnesota

CITY           SKY/WX    TMP DP  RH WIND       PRES   REMARKS
ROCHESTER      CLEAR     64  62  93 W6        30.05R
RED WING       CLEAR     64  63  94 CALM      30.00R
STANTON        CLEAR     66  61  82 SW3       30.01R
DODGE CENTER   CLEAR     63  61  94 W5        30.04S
WINONA         CLEAR     70  63  78 CALM      30.01R
AUSTIN         CLEAR     64  61  88 NW3       30.04S
PRESTON        CLEAR     64  60  88 W7        30.05R
$$
ABBREVIATIONS USED IN REMARKS
   TC - TEMPERATURES IN CELSIUS
  WCI - WIND CHILL INDEX
   HX - HEAT INDEX
  VSB - VISIBILITY
$$




USA.gov is the U.S. government's official web portal to all federal, state and local government web resources and services.